• In Netherlands
  • List of Countries
  • For 7 days
  • Water Temperature
  • Satellite Maps
  • Weather Map
  • Weather Widgets
  • user-avatar
    Login

    Hourly Weather Mayguba

    Today, 19 July, Thursday

    Time Temperature Precipitation Wind Pressure Humidity
    00:00 +17°C° 0 mm 2 mps 756 mmHg 77%
    01:00 +16°C° 0 mm 2 mps 756 mmHg 79%
    02:00 +16°C° 0 mm 2 mps 756 mmHg 81%
    03:00 +16°C° 0 mm 2 mps 756 mmHg 77%
    04:00 +17°C° 0 mm 2 mps 756 mmHg 73%
    05:00 +18°C° 0 mm 3 mps 756 mmHg 68%
    06:00 +20°C° 0 mm 3 mps 756 mmHg 61%
    07:00 +21°C° 0 mm 3 mps 756 mmHg 54%
    08:00 +23°C° 0 mm 4 mps 756 mmHg 47%
    09:00 +25°C° 0 mm 4 mps 756 mmHg 44%
    10:00 +26°C° 0 mm 4 mps 756 mmHg 41%
    11:00 +28°C° 0 mm 5 mps 756 mmHg 38%
    12:00 +28°C° 0 mm 5 mps 756 mmHg 37%
    13:00 +29°C° 0 mm 5 mps 756 mmHg 35%
    14:00 +29°C° 0 mm 5 mps 755 mmHg 34%
    15:00 +29°C° 0 mm 5 mps 755 mmHg 35%
    16:00 +29°C° 0 mm 5 mps 755 mmHg 36%
    17:00 +29°C° 0 mm 5 mps 755 mmHg 36%
    18:00 +27°C° 0 mm 4 mps 755 mmHg 43%
    19:00 +25°C° 0 mm 4 mps 755 mmHg 49%
    20:00 +24°C° 0 mm 3 mps 755 mmHg 55%
    21:00 +21°C° 0 mm 3 mps 755 mmHg 60%
    22:00 +20°C° 0 mm 3 mps 755 mmHg 66%
    23:00 +18°C° 0 mm 2 mps 755 mmHg 71%

    Tomorrow, 20 July, Friday

    Time Temperature Precipitation Wind Pressure Humidity
    00:00 +18°C° 0 mm 2 mps 755 mmHg 72%
    01:00 +17°C° 0 mm 2 mps 755 mmHg 74%
    02:00 +17°C° 0 mm 2 mps 755 mmHg 76%
    03:00 +17°C° 0 mm 2 mps 755 mmHg 73%
    04:00 +18°C° 0 mm 2 mps 755 mmHg 70%
    05:00 +19°C° 0 mm 2 mps 754 mmHg 67%
    06:00 +21°C° 0 mm 3 mps 754 mmHg 61%
    07:00 +22°C° 0 mm 3 mps 754 mmHg 55%
    08:00 +25°C° 0 mm 3 mps 754 mmHg 49%
    09:00 +26°C° 0 mm 3 mps 754 mmHg 45%
    10:00 +28°C° 0 mm 4 mps 754 mmHg 41%
    11:00 +29°C° 0 mm 4 mps 753 mmHg 37%
    12:00 +29°C° 0 mm 4 mps 753 mmHg 37%
    13:00 +30°C° 0 mm 4 mps 753 mmHg 36%
    14:00 +30°C° 0 mm 4 mps 752 mmHg 35%
    15:00 +30°C° 0 mm 4 mps 752 mmHg 35%
    16:00 +30°C° 0 mm 4 mps 752 mmHg 36%
    17:00 +29°C° 0 mm 4 mps 752 mmHg 37%
    18:00 +28°C° 0 mm 3 mps 751 mmHg 43%
    19:00 +26°C° 0 mm 3 mps 751 mmHg 48%
    20:00 +24°C° 0 mm 2 mps 751 mmHg 54%
    21:00 +23°C° 0.1 mm 2 mps 751 mmHg 58%
    22:00 +23°C° 0.1 mm 2 mps 751 mmHg 62%
    23:00 +21°C° 0.1 mm 2 mps 751 mmHg 65%

    Day after tomorrow, 21 July, Saturday

    Time Temperature Precipitation Wind Pressure Humidity
    00:00 +20°C° 0.3 mm 2 mps 751 mmHg 73%
    01:00 +19°C° 0.3 mm 2 mps 750 mmHg 80%
    02:00 +18°C° 0.3 mm 2 mps 750 mmHg 88%
    03:00 +18°C° 0 mm 2 mps 750 mmHg 88%
    04:00 +19°C° 0 mm 3 mps 750 mmHg 88%
    05:00 +19°C° 0 mm 3 mps 750 mmHg 88%
    06:00 +20°C° 0.2 mm 3 mps 749 mmHg 89%
    07:00 +20°C° 0.2 mm 3 mps 749 mmHg 90%
    08:00 +20°C° 0.2 mm 3 mps 749 mmHg 90%
    09:00 +21°C° 0.1 mm 3 mps 749 mmHg 88%
    10:00 +21°C° 0.1 mm 3 mps 749 mmHg 85%
    11:00 +22°C° 0.1 mm 4 mps 749 mmHg 83%
    12:00 +22°C° 0.2 mm 4 mps 749 mmHg 81%
    13:00 +23°C° 0.2 mm 4 mps 748 mmHg 79%
    14:00 +23°C° 0.2 mm 4 mps 748 mmHg 77%
    15:00 +23°C° 0.1 mm 4 mps 748 mmHg 75%
    16:00 +25°C° 0.1 mm 4 mps 748 mmHg 73%
    17:00 +25°C° 0.1 mm 4 mps 748 mmHg 71%
    18:00 +24°C° 0.1 mm 3 mps 748 mmHg 75%
    19:00 +24°C° 0.1 mm 3 mps 747 mmHg 80%
    20:00 +23°C° 0.1 mm 2 mps 747 mmHg 84%
    21:00 +21°C° 0.4 mm 2 mps 747 mmHg 88%
    22:00 +20°C° 0.4 mm 2 mps 747 mmHg 92%
    23:00 +20°C° 0.4 mm 1 mps 747 mmHg 96%

    22 July, Sunday

    Time Temperature Precipitation Wind Pressure Humidity
    00:00 +20°C° 0.6 mm 1 mps 747 mmHg 97%
    01:00 +19°C° 0.6 mm 2 mps 747 mmHg 97%
    02:00 +19°C° 0.6 mm 2 mps 747 mmHg 98%
    03:00 +19°C° 1.8 mm 2 mps 747 mmHg 97%
    04:00 +19°C° 1.8 mm 2 mps 747 mmHg 97%
    05:00 +20°C° 1.8 mm 2 mps 747 mmHg 97%
    06:00 +20°C° 0.5 mm 3 mps 747 mmHg 96%
    07:00 +21°C° 0.5 mm 3 mps 747 mmHg 95%
    08:00 +21°C° 0.5 mm 3 mps 747 mmHg 94%
    09:00 +21°C° 0.1 mm 3 mps 747 mmHg 93%
    10:00 +21°C° 0.1 mm 3 mps 747 mmHg 92%
    11:00 +21°C° 0.1 mm 3 mps 747 mmHg 91%
    12:00 +23°C° 0.1 mm 4 mps 747 mmHg 86%
    13:00 +25°C° 0.1 mm 4 mps 747 mmHg 80%
    14:00 +26°C° 0.1 mm 4 mps 746 mmHg 74%
    15:00 +26°C° 0.2 mm 4 mps 746 mmHg 72%
    16:00 +27°C° 0.2 mm 4 mps 746 mmHg 70%
    17:00 +27°C° 0.2 mm 3 mps 746 mmHg 67%
    18:00 +26°C° 0.6 mm 3 mps 746 mmHg 72%
    19:00 +25°C° 0.6 mm 3 mps 746 mmHg 77%
    20:00 +24°C° 0.6 mm 2 mps 746 mmHg 82%
    21:00 +23°C° 0.5 mm 2 mps 746 mmHg 86%
    22:00 +21°C° 0.5 mm 2 mps 746 mmHg 90%
    23:00 +20°C° 0.5 mm 2 mps 747 mmHg 93%

    23 July, Monday

    Time Temperature Precipitation Wind Pressure Humidity
    00:00 +20°C° 0 mm 2 mps 747 mmHg 94%
    01:00 +19°C° 0 mm 2 mps 747 mmHg 95%
    02:00 +19°C° 0 mm 2 mps 747 mmHg 96%
    03:00 +19°C° 0 mm 3 mps 747 mmHg 95%
    04:00 +19°C° 0 mm 3 mps 747 mmHg 94%
    05:00 +20°C° 0 mm 3 mps 747 mmHg 93%
    06:00 +21°C° 0 mm 3 mps 747 mmHg 89%
    07:00 +22°C° 0 mm 4 mps 747 mmHg 85%
    08:00 +23°C° 0 mm 4 mps 747 mmHg 81%
    09:00 +23°C° 0 mm 4 mps 747 mmHg 80%
    10:00 +23°C° 0 mm 4 mps 747 mmHg 80%
    11:00 +22°C° 0 mm 4 mps 747 mmHg 80%
    12:00 +22°C° 0 mm 4 mps 747 mmHg 80%
    13:00 +22°C° 0 mm 4 mps 747 mmHg 81%
    14:00 +22°C° 0 mm 4 mps 747 mmHg 81%
    15:00 +22°C° 0 mm 4 mps 747 mmHg 80%
    16:00 +22°C° 0 mm 4 mps 747 mmHg 78%
    17:00 +22°C° 0 mm 4 mps 747 mmHg 77%
    18:00 +22°C° 0 mm 4 mps 747 mmHg 79%
    19:00 +21°C° 0 mm 3 mps 747 mmHg 81%
    20:00 +21°C° 0 mm 3 mps 747 mmHg 83%
    21:00 +20°C° 0.1 mm 3 mps 747 mmHg 87%
    22:00 +19°C° 0.1 mm 3 mps 746 mmHg 90%
    23:00 +18°C° 0.1 mm 2 mps 746 mmHg 94%

    24 July, Tuesday

    Time Temperature Precipitation Wind Pressure Humidity
    00:00 +18°C° 0.1 mm 2 mps 746 mmHg 95%
    01:00 +18°C° 0.1 mm 3 mps 746 mmHg 95%
    02:00 +18°C° 0.1 mm 3 mps 746 mmHg 96%
    03:00 +18°C° 0.2 mm 3 mps 746 mmHg 94%
    04:00 +19°C° 0.2 mm 3 mps 746 mmHg 93%
    05:00 +19°C° 0.2 mm 3 mps 746 mmHg 92%
    06:00 +19°C° 0.3 mm 3 mps 746 mmHg 91%
    07:00 +20°C° 0.3 mm 3 mps 746 mmHg 91%
    08:00 +20°C° 0.3 mm 3 mps 746 mmHg 90%
    09:00 +21°C° 0.3 mm 3 mps 746 mmHg 89%
    10:00 +21°C° 0.3 mm 3 mps 746 mmHg 88%
    11:00 +22°C° 0.3 mm 3 mps 746 mmHg 86%
    12:00 +22°C° 0.5 mm 3 mps 746 mmHg 86%
    13:00 +22°C° 0.5 mm 4 mps 746 mmHg 86%
    14:00 +22°C° 0.5 mm 4 mps 747 mmHg 85%
    15:00 +22°C° 0.6 mm 4 mps 747 mmHg 85%
    16:00 +22°C° 0.6 mm 3 mps 747 mmHg 85%
    17:00 +22°C° 0.6 mm 3 mps 747 mmHg 85%
    18:00 +21°C° 0.7 mm 3 mps 747 mmHg 88%
    19:00 +20°C° 0.7 mm 3 mps 747 mmHg 91%
    20:00 +20°C° 0.7 mm 2 mps 747 mmHg 94%
    21:00 +19°C° 1.1 mm 2 mps 747 mmHg 95%
    22:00 +19°C° 1.1 mm 2 mps 747 mmHg 96%
    23:00 +18°C° 1.1 mm 2 mps 747 mmHg 98%
    Show more